Regional Weather Roundup
Issued by NWS

Home | Current Version | Previous Version | Graphics & Text | Print | Product List | Glossary On
Versions: 1 2 3 4 5 6 7 8 9 10 11 12 13 14 15 16 17 18 19 20 21 22 23 24 25 26 27 28 29 30 31 32 33 34 35 36 37 38 39 40 41 42 43 44 45 46 47 48 49 50
000
ASUS45 KCYS 281510
RWRWY

WYOMING REGIONAL WEATHER ROUNDUP
NATIONAL WEATHER SERVICE CHEYENNE WY
800 AM MST TUE FEB 28 2017

NOTE:  "FAIR" INDICATES FEW OR NO CLOUDS BELOW 12,000 FEET
WITH NO SIGNIFICANT WEATHER AND/OR OBSTRUCTIONS TO VISIBILITY.

WYZ001-281600-
YELLOWSTONE NATIONAL PARK

CITY           SKY/WX    TMP DP  RH WIND       PRES   REMARKS
LK YELLOWSTONE   N/A      7   5  91 CALM      29.61R
W YELLOWSTONE  NOT AVBL

$$
WYZ002>013-054>058-071-098>099-281600-
NORTHERN WYOMING

CITY           SKY/WX    TMP DP  RH WIND       PRES   REMARKS
JACKSON        LGT SNOW  14  12  92 SW10      29.70R WCI   1
CODY           FAIR      22   5  48 S9G18     29.65S WCI  12
GREYBULL       FAIR      22  18  85 E3        29.71R
WORLAND        FAIR      22  10  60 S9        29.71R WCI  12
SHERIDAN       FAIR      21   9  59 S8G17     29.66R WCI  11
BUFFALO        FAIR      23   9  55 S5        29.65R WCI  17
GILLETTE       FAIR      23  20  88 W13       29.66R WCI  11
HULETT         CLOUDY    23  21  93 NW3       29.67R
NEWCASTLE      CLOUDY    25  21  86 NW10      29.68R WCI  15

$$
WYZ014>020-022>026-101>103-281600-
CENTRAL WYOMING

CITY           SKY/WX    TMP DP  RH WIND       PRES   REMARKS
BIG PINEY      PTSUNNY  -11 -14  86 N6        29.75R WCI -25
PINEDALE       FAIR     -15 -20  76 NW3       29.75R
DUBOIS         FAIR       9   0  66 NW14      29.63R WCI  -8
LANDER         FAIR       5  -7  57 CALM      29.70R
RIVERTON       FAIR       9  -3  58 W10       29.71R WCI  -5
CASPER         FAIR      15   2  56 SW14      29.72R WCI   0
DOUGLAS        FAIR      11  -1  58 NE8       29.72R WCI  -1

$$
WYZ021-027>030-104>119-281600-
SOUTHERN WYOMING

CITY           SKY/WX    TMP DP  RH WIND       PRES   REMARKS
EVANSTON       FOG        7   3  84 W8        29.76R VSB 1/4 WCI  -6
KEMMERER         N/A    N/A N/A N/A N9        29.74R
FORT BRIDGER   PTSUNNY   14   7  74 SW12      29.79R WCI   0
ROCK SPRINGS   FAIR       7   3  84 W10       29.76R WCI  -8
DIXON            N/A     17  12  80 NE3       29.79R
RAWLINS        FAIR       7   1  76 SE3       29.73R
SARATOGA       CLOUDY    16   9  73 SE6       29.73R WCI   7
LARAMIE        FAIR      14   6  70 E3        29.67R
CHEYENNE       CLOUDY    22   6  50 W16       29.66F WCI   8
TORRINGTON     FAIR      23   8  52 W8        29.71S WCI  14
PINE BLUFFS    FAIR      28   7  40 NE6       29.70R WCI  22

$$



USA.gov is the U.S. government's official web portal to all federal, state and local government web resources and services.